| time (UTC) | temp C | wind direction | speed KPH | gust KPH | rain 1hr cm | rain 24hr cm | rain mn cm | humidity % | barometer mb |
| 20260901141527 | 15 | 288 | 0.0 | 0.0 | 0.00 | 0.00 | 0.00 | 83 | 1016.2 |
| 20260901140031 | 15 | 147 | 0.0 | 0.0 | 0.00 | 0.00 | 0.00 | 83 | 1015.9 |
| 20260901134516 | 15 | 232 | 0.0 | 0.0 | 0.00 | 0.00 | 0.00 | 84 | 1015.7 |
| 20260901133025 | 15 | 121 | 0.0 | 0.0 | 0.00 | 0.00 | 0.00 | 84 | 1015.7 |
| 20260901131529 | 15 | 261 | 0.0 | 0.0 | 0.00 | 0.00 | 0.00 | 84 | 1015.6 |
| 20260901130030 | 15 | 298 | 0.0 | 0.0 | 0.00 | 0.00 | 0.00 | 85 | 1015.5 |
| 20260901124533 | 15 | 225 | 1.6 | 3.2 | 0.00 | 0.00 | 0.00 | 85 | 1015.4 |
| 20260901123022 | 15 | 232 | 0.0 | 4.8 | 0.00 | 0.00 | 0.00 | 85 | 1015.4 |
| 20260901121528 | 15 | 269 | 0.0 | 3.2 | 0.00 | 0.00 | 0.00 | 83 | 1015.4 |
| 20260901120030 | 15 | 253 | 0.0 | 4.8 | 0.00 | 0.00 | 0.00 | 80 | 1015.2 |
| 20260901114531 | 15 | 309 | 0.0 | 0.0 | 0.00 | 0.00 | 0.00 | 77 | 1015.3 |
| 20260901113015 | 15 | 309 | 0.0 | 0.0 | 0.00 | 0.00 | 0.00 | 77 | 1015.4 |
| 20260901111524 | 15 | 251 | 0.0 | 0.0 | 0.00 | 0.00 | 0.00 | 77 | 1015.4 |
| 20260901110028 | 15 | 229 | 0.0 | 3.2 | 0.00 | 0.00 | 0.00 | 77 | 1015.3 |
| 20260901104530 | 15 | 279 | 0.0 | 1.6 | 0.00 | 0.00 | 0.00 | 76 | 1015.3 |
| 20260901103034 | 15 | 297 | 0.0 | 0.0 | 0.00 | 0.00 | 0.00 | 77 | 1015.2 |
| 20260901101521 | 15 | 308 | 0.0 | 4.8 | 0.00 | 0.00 | 0.00 | 77 | 1015.1 |
| 20260901100025 | 15 | 309 | 0.0 | 6.4 | 0.00 | 0.00 | 0.00 | 78 | 1015.3 |
| 20260901094530 | 15 | 275 | 1.6 | 12.9 | 0.00 | 0.00 | 0.00 | 79 | 1015.2 |
| 20260901093011 | 15 | 314 | 0.0 | 0.0 | 0.00 | 0.00 | 0.00 | 84 | 1015.1 |
| 20260901091517 | 15 | 246 | 0.0 | 4.8 | 0.00 | 0.00 | 0.00 | 85 | 1015.0 |
| 20260901090023 | 15 | 227 | 3.2 | 6.4 | 0.00 | 0.00 | 0.00 | 84 | 1015.1 |
| 20260901084520 | 16 | 263 | 0.0 | 1.6 | 0.00 | 0.00 | 0.00 | 78 | 1015.0 |
| 20260901083010 | 16 | 299 | 0.0 | 4.8 | 0.00 | 0.00 | 0.00 | 78 | 1015.0 |
| 20260901081513 | 16 | 325 | 0.0 | 1.6 | 0.00 | 0.00 | 0.00 | 78 | 1014.9 |
| 20260901080035 | 16 | 295 | 0.0 | 1.6 | 0.00 | 0.00 | 0.00 | 79 | 1014.9 |
| 20260901074526 | 16 | 298 | 1.6 | 4.8 | 0.00 | 0.00 | 0.00 | 79 | 1015.0 |
| 20260901073024 | 16 | 309 | 0.0 | 8.0 | 0.00 | 0.00 | 0.00 | 79 | 1015.1 |
| 20260901071513 | 16 | 360 | 0.0 | 8.0 | 0.00 | 0.00 | 0.00 | 79 | 1015.0 |
| 20260901070020 | 16 | 275 | 0.0 | 0.0 | 0.00 | 0.00 | 0.00 | 80 | 1015.0 |
| 20260901064526 | 15 | 290 | 0.0 | 4.8 | 0.00 | 0.00 | 0.00 | 81 | 1015.1 |
| 20260901063046 | 15 | 279 | 1.6 | 6.4 | 0.00 | 0.00 | 0.00 | 82 | 1015.1 |
| 20260901061527 | 15 | 283 | 0.0 | 6.4 | 0.00 | 0.00 | 0.00 | 84 | 1015.2 |
| 20260901060013 | 15 | 217 | 0.0 | 4.8 | 0.00 | 0.00 | 0.00 | 86 | 1015.3 |
| 20260901054519 | 15 | 294 | 0.0 | 0.0 | 0.00 | 0.00 | 0.00 | 87 | 1015.3 |
| 20260901053023 | 15 | 153 | 0.0 | 4.8 | 0.00 | 0.00 | 0.00 | 89 | 1015.4 |
| 20260901051530 | 15 | 146 | 0.0 | 4.8 | 0.00 | 0.00 | 0.00 | 89 | 1015.3 |
| 20260901050031 | 15 | 185 | 1.6 | 4.8 | 0.00 | 0.00 | 0.00 | 89 | 1015.3 |
| 20260901044524 | 15 | 160 | 0.0 | 3.2 | 0.00 | 0.00 | 0.00 | 89 | 1014.9 |
| 20260901043033 | 15 | 236 | 1.6 | 6.4 | 0.00 | 0.00 | 0.00 | 88 | 1014.9 |
| 20260901041530 | 16 | 139 | 0.0 | 0.0 | 0.00 | 0.00 | 0.00 | 88 | 1014.7 |
| 20260901040029 | 16 | 42 | 0.0 | 1.6 | 0.00 | 0.00 | 0.00 | 88 | 1014.6 |
| 20260901034538 | 16 | 84 | 0.0 | 3.2 | 0.00 | 0.00 | 0.00 | 88 | 1014.3 |
| 20260901033023 | 16 | 45 | 0.0 | 3.2 | 0.00 | 0.00 | 0.00 | 88 | 1014.0 |
| 20260901031534 | 16 | 39 | 1.6 | 4.8 | 0.00 | 0.00 | 0.00 | 88 | 1013.9 |
| 20260901030031 | 16 | 44 | 0.0 | 8.0 | 0.00 | 0.00 | 0.00 | 87 | 1013.8 |
| 20260901024508 | 16 | 46 | 6.4 | 11.3 | 0.00 | 0.00 | 0.00 | 85 | 1013.5 |
| 20260901023011 | 16 | 344 | 0.0 | 8.0 | 0.00 | 0.00 | 0.00 | 81 | 1013.5 |
| 20260901021525 | 16 | 235 | 1.6 | 14.5 | 0.00 | 0.00 | 0.00 | 84 | 1013.4 |
| 20260901020025 | 16 | 229 | 4.8 | 17.7 | 0.00 | 0.00 | 0.00 | 89 | 1013.5 |
| 20260901014531 | 16 | 213 | 11.3 | 24.1 | 0.00 | 0.00 | 0.00 | 90 | 1013.5 |
| 20260901013012 | 16 | 215 | 6.4 | 19.3 | 0.00 | 0.00 | 0.00 | 88 | 1013.4 |
| 20260901011538 | 16 | 229 | 8.0 | 20.9 | 0.00 | 0.00 | 0.00 | 87 | 1013.5 |
| 20260901010036 | 17 | 288 | 8.0 | 22.5 | 0.00 | 0.00 | 0.00 | 88 | 1013.6 |
| 20260901004535 | 17 | 213 | 9.7 | 24.1 | 0.00 | 0.00 | 0.00 | 86 | 1013.6 |
| 20260901003031 | 17 | 210 | 8.0 | 29.0 | 0.00 | 0.00 | 0.00 | 87 | 1013.7 |
| 20260901001533 | 17 | 235 | 16.1 | 29.0 | 0.00 | 0.00 | 0.00 | 86 | 1013.5 |
| 20260901000033 | 17 | 211 | 14.5 | 27.4 | 0.00 | 0.00 | 0.00 | 84 | 1013.5 |
| 20260831234532 | 17 | 231 | 14.5 | 27.4 | 0.00 | 0.00 | 0.00 | 84 | 1013.6 |
| 20260831233028 | 17 | 256 | 16.1 | 30.6 | 0.00 | 0.00 | 0.00 | 85 | 1013.6 |
| 20260831231535 | 17 | 232 | 16.1 | 32.2 | 0.00 | 0.00 | 0.00 | 85 | 1013.7 |
| 20260831230018 | 17 | 250 | 17.7 | 32.2 | 0.00 | 0.00 | 0.00 | 85 | 1013.8 |
| 20260831224524 | 17 | 221 | 14.5 | 32.2 | 0.00 | 0.00 | 0.00 | 85 | 1013.9 |
| 20260831223028 | 17 | 238 | 16.1 | 29.0 | 0.00 | 0.00 | 0.00 | 84 | 1014.1 |
| 20260831221534 | 18 | 277 | 11.3 | 24.1 | 0.00 | 0.00 | 0.00 | 82 | 1014.4 |
| 20260831220031 | 17 | 196 | 9.7 | 25.7 | 0.00 | 0.00 | 0.00 | 85 | 1014.7 |
| 20260831214524 | 17 | 217 | 14.5 | 27.4 | 0.00 | 0.00 | 0.00 | 84 | 1014.9 |
| 20260831213027 | 17 | 225 | 14.5 | 27.4 | 0.00 | 0.00 | 0.00 | 84 | 1015.0 |
| 20260831211533 | 17 | 199 | 12.9 | 29.0 | 0.00 | 0.00 | 0.00 | 86 | 1015.3 |
| 20260831210037 | 17 | 207 | 11.3 | 22.5 | 0.00 | 0.00 | 0.00 | 84 | 1015.3 |
| 20260831204516 | 17 | 211 | 12.9 | 22.5 | 0.00 | 0.00 | 0.00 | 84 | 1015.5 |
| 20260831203022 | 18 | 237 | 9.7 | 19.3 | 0.00 | 0.00 | 0.00 | 82 | 1015.5 |
| 20260831201527 | 17 | 171 | 9.7 | 19.3 | 0.00 | 0.00 | 0.00 | 82 | 1015.7 |
| 20260831200007 | 17 | 209 | 9.7 | 17.7 | 0.00 | 0.00 | 0.00 | 83 | 1015.6 |
| 20260831194514 | 17 | 206 | 9.7 | 16.1 | 0.00 | 0.00 | 0.00 | 82 | 1015.6 |
| 20260831193030 | 17 | 192 | 9.7 | 16.1 | 0.00 | 0.00 | 0.00 | 82 | 1015.7 |
| 20260831191525 | 17 | 193 | 8.0 | 16.1 | 0.00 | 0.00 | 0.00 | 83 | 1016.0 |
| 20260831190033 | 17 | 179 | 6.4 | 14.5 | 0.00 | 0.00 | 0.00 | 82 | 1016.0 |
| 20260831184512 | 16 | 133 | 8.0 | 12.9 | 0.00 | 0.00 | 0.00 | 83 | 1015.9 |
| 20260831183036 | 16 | 168 | 6.4 | 14.5 | 0.00 | 0.00 | 0.00 | 82 | 1015.9 |
| 20260831181541 | 16 | 161 | 6.4 | 12.9 | 0.00 | 0.00 | 0.00 | 82 | 1015.9 |
| 20260831180036 | 16 | 134 | 4.8 | 12.9 | 0.00 | 0.00 | 0.00 | 83 | 1015.9 |
| 20260831174532 | 16 | 216 | 4.8 | 11.3 | 0.00 | 0.00 | 0.00 | 83 | 1015.8 |
| 20260831173018 | 15 | 219 | 3.2 | 11.3 | 0.00 | 0.00 | 0.00 | 83 | 1015.8 |
| 20260831171521 | 15 | 183 | 4.8 | 9.7 | 0.00 | 0.00 | 0.00 | 83 | 1015.9 |
| 20260831170033 | 15 | 190 | 3.2 | 9.7 | 0.00 | 0.00 | 0.00 | 83 | 1015.8 |
| 20260831164530 | 15 | 167 | 3.2 | 8.0 | 0.00 | 0.00 | 0.00 | 83 | 1015.6 |
| 20260831163030 | 15 | 163 | 3.2 | 8.0 | 0.00 | 0.00 | 0.00 | 82 | 1015.5 |
| 20260831161529 | 15 | 135 | 1.6 | 4.8 | 0.00 | 0.00 | 0.00 | 83 | 1015.6 |
| 20260831160023 | 15 | 163 | 0.0 | 3.2 | 0.00 | 0.00 | 0.00 | 82 | 1015.4 |
| 20260831154605 | 15 | 274 | 0.0 | 8.0 | 0.00 | 0.00 | 0.00 | 84 | 1015.4 |
| 20260831153005 | 15 | 298 | 3.2 | 8.0 | 0.00 | 0.00 | 0.00 | 84 | 1015.3 |
| 20260831151532 | 14 | 351 | 1.6 | 6.4 | 0.00 | 0.00 | 0.00 | 86 | 1015.2 |
| 20260831150017 | 14 | 13 | 0.0 | 4.8 | 0.00 | 0.00 | 0.00 | 88 | 1015.2 |
| 20260831144507 | 13 | 347 | 3.2 | 6.4 | 0.00 | 0.00 | 0.00 | 89 | 1014.9 |
| 20260831143006 | 13 | 352 | 1.6 | 8.0 | 0.00 | 0.00 | 0.00 | 91 | 1014.8 |